Stations météo

réclame
Mon MeteoGroup
St-Auban-Sur-Durance, France (7588): Température de l'air & dewpoint: 12.01.2019 13:00:00 - 18.01.2019 13:00:00 (CET)St-Auban-Sur-Durance, France (7588): Température de l'air 5cm: 12.01.2019 13:00:00 - 18.01.2019 13:00:00 (CET)St-Auban-Sur-Durance, France (7588): Température de l'air -20cm: 12.01.2019 13:00:00 - 18.01.2019 13:00:00 (CET)St-Auban-Sur-Durance, France (7588): Vitesse du vent & gusts: 12.01.2019 13:00:00 - 18.01.2019 13:00:00 (CET)St-Auban-Sur-Durance, France (7588): Direction du vent: 12.01.2019 13:00:00 - 18.01.2019 13:00:00 (CET)St-Auban-Sur-Durance, France (7588): reduced air pressure: 12.01.2019 13:00:00 - 18.01.2019 13:00:00 (CET)St-Auban-Sur-Durance, France (7588): visibility: 12.01.2019 13:00:00 - 18.01.2019 13:00:00 (CET)St-Auban-Sur-Durance, France (7588): Ensoleillement: 12.01.2019 13:00:00 - 18.01.2019 13:00:00 (CET)St-Auban-Sur-Durance, France (7588): Quantités de précipitations: 12.01.2019 13:00:00 - 18.01.2019 13:00:00 (CET)
Date & Time tt [°C] td [°C] tt 5cm [°C] tt -20cm [°C] ff [km/h] ff [knt] fx [km/h] fx [knt] dd ppp [hPa] vv [km] sd [min] rr [mm]
18.01.2019 13:00:00 - - - - - - - - - - - - -
18.01.2019 12:00:00 6,6 -3,9 7,7 4,5 24 13 44 24 N 1013,7 20 46 0,0
18.01.2019 11:00:00 6,2 -4,0 9,2 4,5 20 11 38 21 N 1013,6 20 60 0,0
18.01.2019 10:00:00 4,8 -5,0 6,7 4,6 17 9 33 18 N 1013,7 20 60 0,0
18.01.2019 09:00:00 4,0 -5,5 3,0 4,7 16 9 31 17 N 1013,7 20 29 0,0
18.01.2019 08:00:00 3,7 -6,3 3,1 4,8 17 9 38 21 N 1013,7 20 0 0,0
18.01.2019 07:00:00 3,8 -6,5 3,5 4,9 25 13 49 27 N 1013,0 20 0 0,0
18.01.2019 06:00:00 4,1 -6,5 3,0 5,0 27 15 50 27 N 1012,5 20 0 0,0
18.01.2019 05:00:00 4,2 -6,1 0,3 5,1 13 7 34 19 NE 1013,0 20 0 0,0
18.01.2019 04:00:00 4,7 -6,0 2,5 5,1 13 7 40 22 NNE 1013,2 20 0 0,0
18.01.2019 03:00:00 4,8 -5,3 2,8 5,2 14 8 34 18 N 1013,6 20 0 0,0
18.01.2019 02:00:00 4,3 -4,7 2,0 5,3 8 5 27 14 E 1014,1 20 0 0,0
18.01.2019 01:00:00 5,1 -4,5 4,5 5,4 19 10 36 19 NNE 1014,2 20 0 0,0
18.01.2019 00:00:00 5,6 -4,3 3,4 5,5 18 10 30 16 N 1014,1 20 0 0,0
17.01.2019 23:00:00 5,3 -3,8 3,1 5,6 8 4 27 15 NNE 1014,1 20 0 0,0
17.01.2019 22:00:00 5,9 -3,7 4,1 5,7 13 7 24 13 N 1013,7 20 0 0,0
17.01.2019 21:00:00 6,1 -2,3 5,0 5,7 16 9 25 14 NNW 1013,5 20 0 0,0
17.01.2019 20:00:00 6,5 0,0 4,5 5,7 12 7 26 14 N 1013,4 20 0 0,0
17.01.2019 19:00:00 6,0 3,2 5,5 5,7 18 10 29 16 N 1013,2 20 0 0,0
17.01.2019 18:00:00 6,5 4,7 6,6 5,6 9 5 15 8 N 1013,0 20 0 0,2
17.01.2019 17:00:00 7,7 4,6 8,4 5,5 5 3 8 4 W 1012,7 20 0 0,0
17.01.2019 16:00:00 8,2 4,4 9,5 5,4 5 3 12 7 WSW 1012,8 20 2 0,0
17.01.2019 15:00:00 8,4 3,6 8,9 5,3 3 2 9 5 N 1012,9 20 11 0,0
17.01.2019 14:00:00 7,6 3,8 8,9 5,2 0 0 15 8 N 1013,5 20 0 0,0
17.01.2019 13:00:00 6,8 3,6 8,4 5,1 5 3 20 11 N 1014,3 20 1 0,0
17.01.2019 12:00:00 6,4 3,9 7,1 5,0 8 4 18 10 NNE 1015,2 20 2 0,0
17.01.2019 11:00:00 5,2 4,0 5,4 5,0 8 4 14 8 NNE 1016,2 20 0 0,2
17.01.2019 10:00:00 4,3 3,9 5,0 4,9 2 1 7 4 NNE 1016,4 6 0 0,0
17.01.2019 09:00:00 4,1 3,5 4,7 5,0 5 3 8 4 N 1015,9 10 0 0,6
17.01.2019 08:00:00 4,2 3,3 4,7 4,9 3 2 13 7 ENE 1015,9 16 0 0,0
17.01.2019 07:00:00 4,2 3,0 4,6 4,9 4 2 9 5 NNE 1016,0 13 0 0,2
17.01.2019 06:00:00 4,6 2,8 4,8 4,9 5 3 13 7 NE 1015,9 20 0 0,0
17.01.2019 05:00:00 4,5 2,8 4,9 4,9 6 3 10 6 NE 1016,5 19 0 0,0
17.01.2019 04:00:00 4,7 3,0 4,7 4,9 6 4 13 7 N 1017,3 20 0 0,0
17.01.2019 03:00:00 5,0 3,3 5,2 4,9 6 3 14 8 W 1018,0 20 0 0,0
17.01.2019 02:00:00 5,8 2,8 5,7 4,9 0 0 9 5 N 1018,2 20 0 0,0
17.01.2019 01:00:00 6,6 2,3 6,5 4,8 6 3 16 9 ESE 1018,3 20 0 0,0
17.01.2019 00:00:00 6,4 2,3 6,2 4,8 0 0 5 3 N 1018,8 20 0 0,0
16.01.2019 23:00:00 6,5 2,8 6,0 4,8 2 1 13 7 NW 1019,0 20 0 0,0
16.01.2019 22:00:00 6,4 3,0 6,1 4,7 0 0 6 3 N 1019,2 20 0 0,0
16.01.2019 21:00:00 6,8 3,2 6,7 4,7 3 2 8 5 SSW 1019,0 20 0 0,0
16.01.2019 20:00:00 8,0 3,5 7,6 4,6 5 3 16 9 SW 1018,7 20 0 0,0
16.01.2019 19:00:00 7,8 3,5 7,8 4,6 7 4 18 10 W 1018,5 20 0 0,0
16.01.2019 18:00:00 7,9 3,2 7,4 4,5 12 6 20 11 WSW 1018,3 20 0 0,0
16.01.2019 17:00:00 9,2 3,0 9,2 4,4 19 10 28 15 SSW 1017,7 20 2 0,0
16.01.2019 16:00:00 9,6 3,1 10,1 4,2 16 9 24 13 SW 1017,7 20 12 0,0
16.01.2019 15:00:00 11,6 2,3 15,0 4,0 17 9 25 14 SW 1017,5 20 60 0,0
16.01.2019 14:00:00 11,4 0,2 13,4 3,8 0 0 9 5 N 1017,8 20 60 0,0
16.01.2019 13:00:00 7,7 -2,4 11,0 3,7 5 3 15 8 NE 1019,5 20 60 0,0
16.01.2019 12:00:00 5,5 -3,6 9,1 3,7 8 4 16 9 NE 1021,1 20 60 0,0
16.01.2019 11:00:00 2,7 -3,4 4,6 3,8 6 4 15 8 NE 1022,5 20 60 0,0
16.01.2019 10:00:00 -0,6 -4,0 0,8 3,9 6 4 11 6 ENE 1023,3 20 60 0,0
16.01.2019 09:00:00 -2,7 -4,7 -4,4 4,0 6 4 11 6 ENE 1023,7 20 28 0,0
16.01.2019 08:00:00 -3,9 -5,4 -5,2 4,1 6 4 13 7 ENE 1023,5 20 0 0,0
16.01.2019 07:00:00 -3,7 -5,7 -5,3 4,3 5 3 8 4 E 1023,5 20 0 0,0
16.01.2019 06:00:00 -3,7 -5,7 -5,0 4,4 4 2 9 5 ESE 1023,3 20 0 0,0
16.01.2019 05:00:00 -3,4 -5,9 -4,8 4,5 4 2 9 5 E 1023,6 20 0 0,0
16.01.2019 04:00:00 -3,0 -5,5 -4,1 4,6 5 3 8 5 E 1023,7 20 0 0,0
16.01.2019 03:00:00 -1,6 -5,1 -4,0 4,7 3 2 13 7 ESE 1023,7 20 0 0,0
16.01.2019 02:00:00 -0,7 -4,6 -2,5 4,9 6 3 12 7 E 1023,2 20 0 0,0
16.01.2019 01:00:00 -0,2 -4,6 -2,7 5,0 5 3 13 7 E 1023,1 20 0 0,0
16.01.2019 00:00:00 -0,7 -4,6 -2,8 5,1 4 2 18 10 E 1023,2 20 0 0,0
15.01.2019 23:00:00 0,0 -4,4 -2,3 5,2 4 2 13 7 E 1023,2 20 0 0,0
15.01.2019 22:00:00 0,5 -4,3 -1,8 5,3 4 2 9 5 SE 1022,9 20 0 0,0
15.01.2019 21:00:00 1,6 -4,3 -0,8 5,4 4 2 9 5 SE 1022,3 20 0 0,0
15.01.2019 20:00:00 2,6 -4,4 -0,1 5,4 4 2 9 5 ESE 1021,8 20 0 0,0
15.01.2019 19:00:00 3,7 -3,6 1,5 5,5 6 3 10 5 ENE 1020,9 20 0 0,0
15.01.2019 18:00:00 6,3 -4,5 3,4 5,4 2 1 17 9 ESE 1019,9 20 0 0,0
15.01.2019 17:00:00 9,5 -4,9 8,8 5,3 11 6 20 11 N 1018,9 20 48 0,0
15.01.2019 16:00:00 11,0 -5,1 14,9 5,2 10 5 17 9 N 1018,5 20 60 0,0
15.01.2019 15:00:00 10,8 -4,9 13,2 5,0 14 8 27 15 N 1018,4 20 60 0,0
15.01.2019 14:00:00 10,1 -4,0 12,4 4,9 14 8 33 18 NNE 1018,9 20 60 0,0
15.01.2019 13:00:00 9,3 -4,3 12,9 4,9 18 10 35 19 NNE 1019,7 20 60 0,0
15.01.2019 12:00:00 8,1 -4,1 10,6 4,8 19 10 37 20 NE 1020,7 20 60 0,0
15.01.2019 11:00:00 6,4 -3,6 8,4 4,9 19 10 35 19 NNE 1021,0 20 60 0,0
15.01.2019 10:00:00 4,8 -3,7 5,5 4,9 14 7 36 19 NE 1020,9 20 60 0,0
15.01.2019 09:00:00 3,0 -4,0 2,0 5,0 10 5 30 16 ENE 1020,6 20 27 0,0
15.01.2019 08:00:00 2,5 -4,5 2,0 5,1 8 5 21 12 E 1020,0 20 0 0,0
15.01.2019 07:00:00 3,7 -4,5 3,3 5,1 11 6 36 19 NE 1019,6 20 0 0,0
15.01.2019 06:00:00 4,4 -4,4 4,0 5,2 21 11 43 23 NNE 1018,6 20 0 0,0
15.01.2019 05:00:00 4,6 -4,4 4,6 5,3 22 12 49 27 NNE 1017,8 20 0 0,0
15.01.2019 04:00:00 5,4 -4,5 3,9 5,4 14 7 34 18 NE 1017,4 20 0 0,0
15.01.2019 03:00:00 5,7 -4,5 5,3 5,4 10 6 34 18 NE 1017,2 20 0 0,0
15.01.2019 02:00:00 5,9 -4,3 5,4 5,5 16 9 36 19 NNE 1017,0 20 0 0,0
15.01.2019 01:00:00 6,5 -4,6 6,1 5,6 20 11 42 23 N 1016,6 20 0 0,0
15.01.2019 00:00:00 7,1 -5,0 6,5 5,6 28 15 46 25 N 1016,1 20 0 0,0
14.01.2019 23:00:00 7,3 -5,4 6,9 5,7 23 13 48 26 N 1015,7 20 0 0,0
14.01.2019 22:00:00 7,4 -6,0 7,0 5,7 15 8 46 25 NNE 1015,2 20 0 0,0
14.01.2019 21:00:00 8,0 -5,8 7,7 5,7 22 12 55 30 N 1014,4 20 0 0,0
14.01.2019 20:00:00 8,2 -5,3 7,9 5,7 28 15 53 29 N 1012,8 20 0 0,0
14.01.2019 19:00:00 8,6 -5,3 8,3 5,7 32 17 52 28 N 1012,4 20 0 0,0
14.01.2019 18:00:00 9,0 -5,3 8,6 5,7 25 13 48 26 N 1012,2 20 0 0,0
14.01.2019 17:00:00 10,3 -5,7 10,4 5,6 29 16 63 34 N 1011,3 20 47 0,0
14.01.2019 16:00:00 11,6 -5,9 13,8 5,4 29 16 66 35 N 1010,5 20 60 0,0
14.01.2019 15:00:00 12,0 -4,6 14,7 5,3 32 18 64 35 N 1009,8 20 60 0,0
14.01.2019 14:00:00 12,2 -2,5 14,1 5,1 39 21 72 39 N 1009,3 20 60 0,0
14.01.2019 13:00:00 12,9 -2,2 15,7 5,0 33 18 73 40 N 1008,7 20 60 0,0
14.01.2019 12:00:00 12,3 -0,9 14,9 4,9 39 21 75 40 N 1009,4 20 60 0,0
14.01.2019 11:00:00 11,6 -1,6 13,5 4,9 46 25 85 46 N 1009,8 20 60 0,0
14.01.2019 10:00:00 10,6 -0,3 10,1 4,9 41 22 87 47 N 1009,9 20 55 0,0
14.01.2019 09:00:00 9,5 -0,1 9,8 4,8 48 26 75 41 NNW 1009,8 20 9 0,0
14.01.2019 08:00:00 10,0 0,3 9,9 4,8 44 24 79 42 N 1009,2 20 0 0,0
14.01.2019 07:00:00 10,7 0,1 10,4 4,8 48 26 77 42 NNW 1008,5 20 0 0,0
14.01.2019 06:00:00 10,8 0,2 10,5 4,8 52 28 81 44 N 1008,2 20 0 0,0
14.01.2019 05:00:00 10,7 0,7 10,5 4,7 43 23 78 42 N 1008,5 20 0 0,0
14.01.2019 04:00:00 10,9 1,4 10,6 4,7 27 15 59 32 N 1009,1 20 0 0,0
14.01.2019 03:00:00 11,5 1,4 10,0 4,7 24 13 49 27 N 1009,4 20 0 0,0
14.01.2019 02:00:00 11,5 1,1 10,4 4,7 16 8 49 27 WNW 1009,2 20 0 0,0
14.01.2019 01:00:00 12,3 0,7 11,5 4,7 26 14 53 29 NNW 1009,3 20 0 0,0
14.01.2019 00:00:00 12,8 1,5 9,5 4,7 8 4 34 18 S 1009,8 20 0 0,0
13.01.2019 23:00:00 12,6 1,9 10,9 4,7 4 2 25 13 SSE 1010,1 20 0 0,0
13.01.2019 22:00:00 13,7 2,3 7,5 4,7 9 5 29 16 WSW 1010,1 20 0 0,0
13.01.2019 21:00:00 11,1 1,6 6,8 4,7 13 7 27 14 N 1011,2 20 0 0,0
13.01.2019 20:00:00 9,6 1,7 7,1 4,6 11 6 30 16 W 1011,8 20 0 0,0
13.01.2019 19:00:00 8,6 1,9 7,3 4,6 15 8 28 15 WSW 1011,7 20 0 0,0
13.01.2019 18:00:00 10,3 1,9 8,1 4,5 6 4 39 21 NW 1011,4 20 0 0,0
13.01.2019 17:00:00 13,7 0,0 12,3 4,4 17 9 43 23 N 1010,7 20 14 0,0
13.01.2019 16:00:00 12,7 2,0 14,5 4,3 11 6 26 14 WNW 1011,3 20 54 0,0
13.01.2019 15:00:00 12,7 2,5 13,8 4,1 10 6 23 12 WSW 1011,6 20 38 0,0
13.01.2019 14:00:00 11,4 3,2 13,3 3,9 21 12 26 14 SW 1012,3 20 56 0,0
13.01.2019 13:00:00 11,0 2,6 11,4 3,9 16 9 22 12 SSW 1013,7 20 26 0,0
13.01.2019 12:00:00 9,4 2,3 10,3 3,8 9 5 16 9 WSW 1014,7 20 0 0,0
13.01.2019 11:00:00 8,4 1,3 8,7 3,7 9 5 16 9 W 1015,3 20 0 0,0
13.01.2019 10:00:00 8,9 0,1 7,4 3,7 6 3 17 9 WNW 1014,8 20 46 0,0
13.01.2019 09:00:00 7,1 -0,9 7,3 3,7 11 6 28 15 W 1015,3 20 0 0,0
13.01.2019 08:00:00 8,5 -0,8 7,7 3,7 14 8 35 19 N 1014,6 20 0 0,0
13.01.2019 07:00:00 8,4 -0,9 7,0 3,7 19 11 37 20 N 1014,8 20 0 0,0
13.01.2019 06:00:00 8,0 -1,3 7,6 3,7 20 11 44 24 N 1014,7 20 0 0,0
13.01.2019 05:00:00 8,0 -1,3 6,8 3,6 23 12 47 25 N 1014,7 20 0 0,0
13.01.2019 04:00:00 7,0 -1,7 6,7 3,6 28 15 46 25 N 1015,2 20 0 0,0
13.01.2019 03:00:00 7,0 -1,9 5,9 3,7 27 15 45 24 N 1015,7 20 0 0,0
13.01.2019 02:00:00 6,4 -2,5 4,8 3,7 18 10 33 18 NNE 1016,3 20 0 0,0
13.01.2019 01:00:00 5,3 -3,5 3,3 3,7 24 13 37 20 N 1017,7 20 0 0,0
13.01.2019 00:00:00 4,5 -3,3 3,3 3,7 4 2 28 15 SSE 1019,5 20 0 0,0
12.01.2019 23:00:00 4,9 -2,9 5,0 3,7 22 12 63 34 N 1020,2 20 0 0,0
12.01.2019 22:00:00 5,1 -3,0 4,8 3,6 29 16 58 31 N 1020,1 20 0 0,0
12.01.2019 21:00:00 4,6 -2,7 4,6 3,7 34 18 56 30 N 1020,0 20 0 0,0
12.01.2019 20:00:00 5,4 -2,4 5,2 3,6 28 15 59 32 N 1020,6 20 0 0,0
12.01.2019 19:00:00 6,0 -2,6 6,1 3,6 21 12 49 26 NNE 1021,1 20 0 0,0
12.01.2019 18:00:00 6,7 -2,5 6,7 3,5 37 20 62 34 N 1020,5 20 0 0,0
12.01.2019 17:00:00 8,1 -2,6 8,1 3,4 20 11 41 22 N 1020,0 20 44 0,0
12.01.2019 16:00:00 9,4 -2,3 12,1 3,2 27 15 50 27 N 1019,9 20 60 0,0
12.01.2019 15:00:00 9,4 -2,6 12,2 3,0 29 16 48 26 N 1020,0 20 60 0,0
12.01.2019 14:00:00 8,7 -2,9 10,6 2,9 25 13 51 28 N 1020,7 20 60 0,0
12.01.2019 13:00:00 7,2 -3,4 9,9 2,8 22 12 46 25 NNE 1021,6 20 60 0,0

tt = Température de l'air
td = dewpoint
tt 5cm = Température de l'air 5cm
tt -20cm = Température de l'air -20cm
ff = Vitesse du vent
fx = gusts
dd = Direction du vent
ppp = reduced air pressure
vv = visibility
sd = Ensoleillement
rr = Quantités de précipitations

stations d'obs. à proximité